Precipitable_Water
1.55 1.56 1.50 1.52 1.48 1.45 1.47 1.39 1.20 1.04 1.08 1.18 1.25 1.41 1.43 1.45 1.45 1.45 1.40 1.44 1.45 1.45 1.41 1.39 1.39 1.39 1.38 1.38 1.34 1.31 1.25 1.21 1.15 1.09 1.06 0.97 0.87 0.80
1.56 1.52 1.53 1.58 1.53 1.52 1.47 1.46 1.37 1.25 1.09 1.27 1.30 1.34 1.39 1.40 1.44 1.41 1.36 1.36 1.38 1.41 1.39 1.38 1.36 1.36 1.35 1.36 1.32 1.30 1.25 1.20 1.14 1.09 1.04 0.94 0.84 0.78
1.58 1.58 1.56 1.57 1.50 1.53 1.54 1.53 1.42 1.34 1.18 1.25 1.32 1.36 1.35 1.35 1.38 1.45 1.42 1.39 1.41 1.42 1.38 1.36 1.34 1.33 1.33 1.32 1.30 1.29 1.23 1.20 1.13 1.05 0.99 0.91 0.81 0.76
1.56 1.52 1.51 1.51 1.48 1.52 1.51 1.45 1.36 1.39 1.29 1.16 1.26 1.29 1.29 1.33 1.32 1.35 1.36 1.39 1.39 1.39 1.37 1.36 1.35 1.34 1.30 1.30 1.27 1.24 1.19 1.17 1.12 1.05 0.97 0.89 0.82 0.76
1.51 1.46 1.48 1.50 1.44 1.44 1.41 1.40 1.37 1.38 1.35 1.26 1.20 1.29 1.29 1.33 1.31 1.33 1.31 1.34 1.35 1.35 1.34 1.34 1.33 1.32 1.26 1.24 1.21 1.17 1.15 1.11 1.05 0.99 0.95 0.87 0.81 0.81
1.50 1.45 1.46 1.42 1.38 1.37 1.38 1.37 1.36 1.32 1.30 1.24 1.21 1.22 1.26 1.29 1.27 1.20 1.17 1.25 1.22 1.27 1.25 1.22 1.23 1.22 1.18 1.15 1.10 1.07 1.04 1.01 0.98 0.93 0.91 0.86 0.83 0.86
1.42 1.41 1.41 1.41 1.41 1.41 1.35 1.33 1.33 1.28 1.25 1.20 1.15 1.16 1.14 1.11 1.10 1.16 1.10 1.11 1.08 1.09 1.00 0.99 1.02 1.02 1.00 0.99 0.98 0.98 0.97 0.94 0.90 0.88 0.86 0.83 0.81 0.91
1.27 1.29 1.35 1.34 1.34 1.35 1.34 1.33 1.31 1.22 1.16 1.11 1.08 1.05 1.06 1.07 1.04 0.97 0.89 0.80 0.70 0.91 0.80 0.76 0.82 0.80 0.83 0.87 0.90 0.91 0.90 0.89 0.88 0.85 0.79 0.75 0.79 0.91
1.28 1.25 1.26 1.28 1.29 1.27 1.25 1.22 1.17 1.14 1.08 0.98 0.88 0.86 0.83 0.85 0.82 0.75 0.70 0.66 0.63 0.69 0.69 0.61 0.71 0.67 0.74 0.79 0.83 0.84 0.85 0.85 0.82 0.80 0.77 0.74 0.82 0.89
1.20 1.18 1.17 1.12 1.08 1.04 1.01 0.94 0.88 0.85 0.82 0.81 0.75 0.73 0.74 0.75 0.74 0.72 0.68 0.65 0.65 0.67 0.68 0.52 0.64 0.62 0.69 0.73 0.78 0.80 0.81 0.80 0.79 0.78 0.78 0.76 0.89 0.95
0.98 0.95 0.88 0.82 0.79 0.76 0.71 0.67 0.66 0.66 0.72 0.73 0.73 0.75 0.75 0.76 0.77 0.73 0.64 0.60 0.57 0.59 0.66 0.59 0.60 0.61 0.64 0.67 0.73 0.77 0.78 0.77 0.78 0.79 0.80 0.81 0.92 0.97
0.61 0.61 0.59 0.58 0.57 0.56 0.53 0.50 0.47 0.50 0.54 0.56 0.59 0.63 0.68 0.70 0.72 0.69 0.66 0.59 0.58 0.56 0.65 0.62 0.61 0.61 0.55 0.65 0.68 0.71 0.73 0.75 0.77 0.78 0.79 0.81 0.89 0.94
0.45 0.46 0.48 0.48 0.48 0.47 0.47 0.45 0.44 0.48 0.48 0.49 0.50 0.52 0.55 0.57 0.61 0.67 0.67 0.62 0.59 0.57 0.67 0.67 0.61 0.61 0.60 0.57 0.63 0.66 0.67 0.69 0.72 0.76 0.78 0.81 0.88 0.91
0.39 0.41 0.42 0.43 0.42 0.42 0.43 0.43 0.45 0.45 0.44 0.42 0.41 0.40 0.42 0.45 0.52 0.56 0.63 0.65 0.65 0.63 0.67 0.67 0.59 0.64 0.63 0.59 0.56 0.63 0.68 0.70 0.73 0.73 0.73 0.79 0.86 0.89
0.34 0.33 0.33 0.33 0.35 0.35 0.36 0.38 0.39 0.39 0.37 0.35 0.34 0.36 0.40 0.45 0.47 0.48 0.52 0.56 0.62 0.61 0.66 0.67 0.66 0.66 0.64 0.63 0.59 0.60 0.63 0.67 0.71 0.69 0.69 0.75 0.79 0.83
0.32 0.32 0.32 0.33 0.33 0.34 0.34 0.35 0.36 0.35 0.35 0.33 0.33 0.36 0.40 0.41 0.42 0.44 0.43 0.47 0.46 0.51 0.59 0.63 0.68 0.64 0.62 0.64 0.64 0.59 0.64 0.62 0.67 0.65 0.68 0.73 0.78 0.81
0.30 0.28 0.25 0.24 0.24 0.25 0.27 0.28 0.30 0.32 0.32 0.34 0.33 0.34 0.34 0.37 0.37 0.42 0.43 0.42 0.41 0.43 0.48 0.55 0.61 0.61 0.62 0.63 0.58 0.59 0.61 0.63 0.65 0.59 0.65 0.67 0.72 0.77
0.26 0.22 0.20 0.21 0.21 0.22 0.23 0.25 0.28 0.29 0.30 0.31 0.32 0.33 0.33 0.34 0.36 0.38 0.41 0.40 0.38 0.41 0.44 0.50 0.52 0.53 0.53 0.59 0.62 0.57 0.60 0.61 0.64 0.61 0.54 0.58 0.63 0.72
0.22 0.21 0.21 0.22 0.23 0.25 0.26 0.27 0.27 0.29 0.31 0.32 0.32 0.33 0.34 0.35 0.35 0.36 0.36 0.37 0.39 0.41 0.43 0.46 0.48 0.46 0.44 0.44 0.55 0.63 0.57 0.58 0.60 0.60 0.55 0.51 0.58 0.66
0.25 0.25 0.26 0.29 0.29 0.29 0.29 0.29 0.30 0.31 0.31 0.31 0.32 0.33 0.34 0.35 0.34 0.34 0.35 0.35 0.37 0.40 0.41 0.46 0.47 0.47 0.46 0.47 0.48 0.54 0.62 0.58 0.58 0.55 0.52 0.49 0.50 0.63
0.27 0.29 0.30 0.31 0.30 0.31 0.32 0.33 0.33 0.33 0.34 0.33 0.33 0.33 0.33 0.33 0.33 0.34 0.35 0.36 0.38 0.39 0.38 0.41 0.46 0.53 0.53 0.53 0.46 0.47 0.55 0.61 0.61 0.55 0.47 0.44 0.40 0.41
0.31 0.32 0.33 0.34 0.33 0.32 0.32 0.31 0.31 0.30 0.30 0.30 0.31 0.31 0.31 0.33 0.32 0.34 0.35 0.35 0.37 0.39 0.40 0.44 0.48 0.49 0.48 0.47 0.45 0.47 0.49 0.54 0.59 0.56 0.50 0.45 0.38 0.32
0.29 0.29 0.30 0.30 0.30 0.29 0.29 0.28 0.28 0.28 0.28 0.29 0.30 0.30 0.31 0.30 0.33 0.34 0.35 0.36 0.38 0.39 0.41 0.41 0.44 0.46 0.46 0.48 0.47 0.46 0.47 0.49 0.51 0.48 0.46 0.46 0.41 0.38
Wind_Speed
42 41 41 38 36 37 39 39 36 36 38 37 37 35 36 36 35 34 33 35 35 36 37 38 39 37 36 37 36 36 35 34 32 32 31 30 29 29
42 41 41 39 39 39 37 37 37 37 37 38 37 38 39 39 37 37 36 37 37 36 37 38 38 39 39 38 37 37 35 34 32 32 32 31 30 29
38 39 40 38 38 37 37 35 36 36 39 39 40 40 39 38 37 36 35 35 35 36 38 40 40 39 39 39 39 37 37 36 35 34 33 32 31 30
36 38 39 39 39 36 35 34 36 38 39 36 35 35 36 34 35 33 34 36 38 38 39 40 41 40 40 38 37 38 38 38 37 35 35 33 32 30
35 34 35 34 33 33 33 35 33 31 30 31 30 29 29 29 30 34 37 36 37 38 38 39 39 38 37 37 37 37 37 36 36 37 36 35 33 31
28 30 29 30 32 32 33 33 33 31 29 29 29 27 28 30 32 32 32 33 34 36 38 38 38 36 36 37 37 37 35 35 34 34 33 33 33 32
28 29 30 31 31 30 29 28 28 27 26 26 26 26 26 26 27 29 30 31 32 33 33 32 32 34 36 37 36 35 34 33 32 32 33 33 32 32
24 23 24 25 24 23 24 22 22 22 22 23 24 24 24 25 26 27 27 27 27 28 30 31 32 34 35 35 35 35 35 35 35 33 33 32 31 31
19 18 16 16 16 17 18 18 20 20 20 21 21 21 22 23 23 24 26 27 28 30 30 32 32 33 33 34 34 34 34 35 35 34 34 34 32 30
13 13 14 14 15 16 17 18 17 18 19 19 21 22 23 25 26 27 28 28 29 31 31 32 33 33 33 33 33 33 34 36 36 36 36 34 32 29
12 13 14 14 15 15 16 17 18 20 21 22 24 25 26 28 28 29 30 31 32 33 33 34 33 34 34 34 34 35 37 38 38 37 35 32 29 27
12 13 13 14 15 17 18 19 20 22 24 25 26 27 29 30 32 33 34 34 35 36 36 35 34 34 34 35 36 38 40 40 37 34 32 29 27 26
12 13 14 16 17 18 19 21 23 24 26 27 29 30 31 33 34 35 37 37 37 38 37 36 36 36 36 35 35 36 36 34 30 28 27 27 26 25
14 15 17 18 20 21 22 24 25 26 28 30 31 33 34 36 37 38 39 40 40 41 40 39 38 36 35 35 34 32 29 26 24 24 24 23 22 23
16 18 20 21 22 24 25 27 29 30 32 33 34 35 36 38 38 39 40 41 41 41 40 39 38 37 36 32 31 28 25 24 21 21 22 21 22 23
20 22 23 24 25 27 28 30 31 33 34 35 36 38 38 39 39 40 40 40 40 39 39 38 38 37 34 34 30 25 21 20 21 20 20 21 22 23
24 25 26 28 29 30 32 33 34 35 36 37 38 39 39 39 40 40 40 39 39 38 37 37 37 35 35 33 29 25 23 22 21 21 21 22 24 25
27 29 30 31 32 34 35 36 37 37 38 39 40 40 40 40 40 40 39 39 38 38 37 36 34 32 32 30 29 27 25 23 23 23 22 22 23 23
30 32 33 34 35 36 37 38 39 40 40 40 41 41 41 41 41 40 39 38 37 37 36 34 32 32 30 28 26 28 26 25 25 25 25 24 23 24
33 34 36 37 38 39 40 40 41 41 41 42 42 42 42 41 40 39 38 37 37 36 34 32 31 30 29 28 26 26 27 25 25 25 25 24 24 26
36 37 39 40 41 42 43 44 44 44 44 44 43 42 41 40 40 39 38 37 36 34 32 31 30 29 27 26 26 26 26 26 27 27 26 25 25 26
37 39 40 42 42 43 43 44 44 44 43 43 42 42 41 40 39 38 37 36 34 33 32 30 27 26 26 26 25 26 25 26 28 28 28 26 25 25
38 40 41 42 43 44 44 44 45 45 44 43 42 42 40 40 39 38 36 35 33 31 29 26 25 25 26 26 24 25 25 26 29 28 27 26 25 24
Wind_Direction
235 242 248 250 256 259 258 261 262 269 269 271 272 268 268 269 271 272 271 271 270 274 278 282 285 285 287 288 287 291 292 291 288 289 292 293 292 291
242 246 250 248 256 258 260 258 262 269 270 274 268 271 269 269 271 271 271 272 272 274 279 280 284 285 286 284 287 286 289 287 287 287 289 290 290 290
239 242 248 256 258 260 259 259 265 268 271 273 271 271 266 269 269 272 271 273 274 276 280 282 283 283 284 284 284 284 286 285 284 285 286 287 287 287
247 251 252 257 257 257 256 257 267 271 271 270 274 271 266 266 269 266 274 275 276 278 281 283 282 282 283 283 282 284 285 284 281 282 283 285 284 282
249 254 255 251 253 255 255 263 265 267 266 270 273 270 267 267 267 273 276 277 277 279 283 286 284 281 279 281 282 283 284 286 281 280 281 282 282 279
248 248 250 253 254 256 260 263 265 263 264 266 268 268 269 271 274 277 278 278 279 281 284 286 282 280 280 282 283 283 283 285 284 281 280 282 279 276
250 254 253 253 257 255 258 259 259 260 263 266 268 271 272 273 276 279 280 283 284 284 286 287 285 283 283 283 282 279 281 282 282 280 281 281 279 275
248 255 254 252 250 251 255 254 260 261 264 268 272 273 276 276 278 279 282 285 287 287 289 289 288 286 285 283 282 280 279 279 281 280 279 280 277 274
241 243 243 243 246 253 255 257 262 265 269 271 273 275 277 278 281 282 283 286 287 289 289 291 290 290 288 285 281 280 279 279 279 278 277 276 272 270
221 231 242 252 256 257 260 263 266 268 269 272 273 277 279 281 282 284 285 287 289 291 290 293 293 292 291 288 283 281 280 280 279 277 276 272 266 262
238 247 253 258 264 266 265 267 268 271 274 276 278 279 281 283 283 285 286 288 290 291 290 292 294 294 292 289 285 282 282 281 279 275 270 263 257 251
257 257 264 266 268 270 270 272 274 276 279 280 282 283 284 284 285 284 285 286 288 291 289 289 292 293 295 291 287 285 283 280 275 269 263 255 249 243
257 260 265 270 273 276 276 277 278 281 282 283 284 285 286 287 287 286 286 286 287 288 290 286 289 289 291 294 292 288 284 277 268 259 254 252 242 232
267 270 273 277 278 280 280 282 284 284 285 286 286 288 288 289 290 288 287 286 285 285 285 285 287 285 287 290 291 290 281 271 257 252 247 243 234 226
275 277 279 280 281 282 284 285 286 287 288 288 289 289 289 290 290 290 289 287 286 285 285 283 283 283 282 285 288 283 274 256 254 247 241 235 227 221
280 280 282 283 284 285 286 288 288 289 289 290 290 291 291 291 291 291 290 288 287 285 284 283 282 280 277 277 278 271 260 251 244 240 236 229 225 220
282 283 284 285 286 287 288 289 290 290 291 291 292 292 292 292 291 291 290 289 287 286 284 282 279 278 276 269 268 257 249 245 241 236 234 229 225 222
283 285 286 287 288 288 289 289 290 291 291 292 292 292 292 292 292 291 290 288 288 286 284 280 276 277 273 266 257 247 241 243 238 232 229 226 221 216
285 287 287 288 289 289 290 290 290 291 291 291 291 291 291 291 291 291 290 288 287 287 284 279 275 270 265 259 251 240 238 238 234 227 224 222 218 213
287 288 288 289 289 289 289 290 290 290 290 290 290 291 291 290 290 289 289 288 286 285 283 277 271 266 257 252 243 236 233 233 227 221 219 219 216 211
288 289 289 289 289 289 289 289 289 289 289 289 289 289 289 290 290 289 287 286 284 283 279 274 268 261 254 241 235 231 230 230 221 215 213 213 212 211
291 291 291 291 291 291 291 290 290 289 289 289 288 289 288 288 288 287 286 285 282 280 276 271 264 252 240 229 231 226 227 227 215 211 211 212 211 211
294 294 294 294 292 292 291 290 289 289 288 287 287 287 287 286 286 285 284 282 279 276 271 264 254 242 228 225 225 222 223 215 208 206 208 210 211 211